Regional Weather Roundup
Issued by NWS

Home | Current Version | Previous Version | Text Only | Print | Product List | Glossary Off
Versions: 1 2 3 4 5 6 7 8 9 10 11 12 13 14 15 16 17 18 19 20 21 22 23 24 25 26 27 28 29 30 31 32 33 34 35 36 37 38 39 40 41 42 43 44 45 46 47 48 49 50

000
ASUS43 KMPX 310910
RWRMN
WEATHER ROUNDUP FOR MINNESOTA
NATIONAL WEATHER SERVICE TWIN CITIES/CHANHASSEN MN
400 AM CDT TUE MAY 31 2016


NOTE: "FAIR" INDICATES FEW OR NO CLOUDS BELOW 12,000 FEET WITH NO
SIGNIFICANT WEATHER AND/OR OBSTRUCTIONS TO VISIBILITY. N/A MEANS
CURRENT SKY AND/OR WEATHER CONDITIONS ARE NOT AVAILABLE.

MNZ060>063-068>070-311000-
   Twin Cities Metro

CITY           SKY/WX    TMP DP  RH WIND       PRES   REMARKS
TWIN CITIES    CLOUDY    68  56  65 SE6       29.85S
ST PAUL        CLOUDY    67  57  70 SE9       29.85S
CRYSTAL        LGT RAIN  68  56  65 SE8       29.82F
BLAINE         CLOUDY    66  61  82 SE6       29.85R
EDEN PRAIRIE   CLOUDY    67  57  70 SE7       29.84R
SOUTH ST PAUL  CLOUDY    68  56  66 SE7       29.85R
LAKE ELMO      FAIR      68  57  68 E8        29.86F
$$
MNZ001>005-007-008-013>017-022>024-027-028-311000-
   Northwest Minnesota

CITY           SKY/WX    TMP DP  RH WIND       PRES   REMARKS
BEMIDJI        RAIN      58  56  92 E7        29.83F
HALLOCK        CLOUDY    57  55  94 E22G32    29.70F
ROSEAU         RAIN      54  48  82 E13G18    29.83F
WARROAD        RAIN      57  52  82 E13G21    29.87F
THIEF RVR FALL CLOUDY    59  54  82 E21       29.74F
CROOKSTON      CLOUDY    61  59  94 SE16G24   29.69F
FOSSTON        RAIN      57  55  94 E13       29.76F
DETROIT LAKES  CLOUDY    61  57  88 SE9       29.75F
MOORHEAD       CLOUDY    61  57  88 SW5       29.73R
PARK RAPIDS    LGT RAIN  61  58  90 E3        29.80F FOG
MAHNOMEN       CLOUDY    60  58  92 SE12      29.73F
$$
MNZ006-009>011-018-025>026-311000-
   North Central Minnesota

CITY           SKY/WX    TMP DP  RH WIND       PRES   REMARKS
BAUDETTE       CLOUDY    57  47  69 SE15G24   29.88R
FLAG ISLAND    CLOUDY    57  46  67 E8        29.88F
INTL FALLS     CLOUDY    55  46  71 E14       29.93F
WASKISH        LGT RAIN  57  52  82 E15       29.83F
BIG FORK       CLOUDY    55  46  71 E7        29.90S
LONGVILLE      CLOUDY    55  54  94 E8        29.84S
GRAND RAPIDS   RAIN      52  48  86 E8        29.94R
CRANE LAKE     MOCLDY    52  46  82 SE5       29.99F
ORR            CLOUDY    54  45  71 SE7       29.94S
COOK           CLOUDY    52  45  76 E6        29.97S
WALKER         HVY RAIN  59  57  92 SE6       29.85R
$$
MNZ012-019>021-037-311000-
   Northeast Minnesota

CITY           SKY/WX    TMP DP  RH WIND       PRES   REMARKS
DULUTH         CLOUDY    48  42  80 E21G33    29.98R
ELY            MOCLDY    48  39  71 E10G17    30.02R
HIBBING        CLOUDY    49  42  77 E14G20    29.96R
EVELETH        CLOUDY    46  41  81 E9G16     29.99R
DULUTH HARBOR  CLOUDY    46  43  87 NE23G33   30.02R
TWO HARBORS    CLOUDY    50  45  81 NE16G28   30.01S
SILVER BAY     CLOUDY    46  43  87 NE14G22   30.04S
GRAND MARAIS     N/A     42  39  89 NE9       30.10R
G MARAIS ARPRT CLOUDY    45  36  70 E9        30.09R
$$
MNZ029>031-032-039>041-046>048-054>057-064-311000-
   West Central Minnesota

CITY           SKY/WX    TMP DP  RH WIND       PRES   REMARKS
FERGUS FALLS   CLOUDY    61  61 100 SE10      29.72R
WHEATON        CLOUDY    61  61 100 S6        29.80R
MORRIS         CLOUDY    61  59  94 SE15      29.76F
ALEXANDRIA     CLOUDY    61  57  87 SE15      29.80F
ELBOW LAKE     CLOUDY    60  58  94 SE16      29.76R
WADENA         HVY RAIN  57  57 100 CALM      29.81S
GLENWOOD       RAIN      61  59  94 SE8       29.83F
APPLETON       CLOUDY    64  59  82 SE12G17   29.77F
BENSON         CLOUDY    63  57  82 S13G24    29.79
ORTONVILLE     CLOUDY    61  57  88 SE10G16   29.78R
MADISON        CLOUDY    63  61  94 SE15      29.77F
WILLMAR        RAIN      63  61  94 CALM      29.86F
$$
MNZ033>034-036-042>043-049>051-058-059-311000-
   Central Minnesota

CITY           SKY/WX    TMP DP  RH WIND       PRES   REMARKS
ST CLOUD       RAIN      66  57  72 SW15G25   29.84R
SAUK CENTRE    RAIN      60  58  92 W5        29.84S
PAYNESVILLE    LGT RAIN  63  63 100 SW12      29.85F
AITKIN         CLOUDY    55  48  76 E9G17     29.87F
PINE RIVER     LGT RAIN  59  55  88 E12G20    29.87R
BRAINERD       CLOUDY    60  56  86 E8G16     29.84S
STAPLES        RAIN      61  59  94 CALM      29.82S
LONG PRAIRIE   RAIN      61  59  94 W6        29.83S
LITTLE FALLS   CLOUDY    68  55  64 S13G26    29.84S
LITCHFIELD     LGT RAIN  63  63 100 SW6       29.86S
BUFFALO        CLOUDY    66  56  68 CALM      29.86R
MAPLE LAKE     CLOUDY    64  61  91 CALM      29.87R
HUTCHINSON     RAIN      64  61  88 SW9       29.86F
$$
MNZ037-044-045-052-053-311000-
   East Central Minnesota

CITY           SKY/WX    TMP DP  RH WIND       PRES   REMARKS
PRINCETON      CLOUDY    66  57  72 SE5       29.85R
MORA           CLOUDY    59  54  82 E3        29.89R
CAMBRIDGE      CLOUDY    70  55  60 SE7       29.84R
RUSH CITY      CLOUDY    66  55  67 SE3       29.87S
MOOSE LAKE     LGT RAIN  46  45  93 NE10G17   29.94S
HINCKLEY       CLOUDY    59  55  88 N9        29.91R
CLOQUET        CLOUDY    48  41  76 E12G24    29.98R
MCGREGOR       CLOUDY    52  48  87 E20G26    29.90F
$$
MNZ071>073-080-081-089-090-097-098-311000-
   Southwest Minnesota

CITY           SKY/WX    TMP DP  RH WIND       PRES   REMARKS
MONTEVIDEO     CLOUDY    63  63 100 S10       29.81F
GRANITE FALLS  CLOUDY    64  60  88 SE15G22   29.81F
CANBY          LGT RAIN  65  63  93 SE9       29.77F
MARSHALL       LGT RAIN  62  59  90 SE15      29.79F
REDWOOD FALLS  LGT RAIN  61  58  90 S5        29.83F
OLIVIA         RAIN      66  63  88 S5        29.83F
PIPESTONE      CLOUDY    61  59  94 SW6       29.83R
WINDOM         LGT RAIN  64  59  82 CALM      29.85F
WORTHINGTON    LGT RAIN  61  59  93 S10       29.85F
JACKSON        CLOUDY    63  57  82 S14G23    29.89R
TRACY          LGT RAIN  62  61  96 E8        29.82F
SLAYTON        LGT RAIN  62  62 100 S8        29.83F
$$
MNZ065>067-074>077-082>085-091>093-311000-
   South Central Minnesota

CITY           SKY/WX    TMP DP  RH WIND       PRES   REMARKS
MANKATO        CLOUDY    68  54  60 S14G20    29.84S
NEW ULM        TSTM      63  61  94 W18       29.88R
ST JAMES       CLOUDY    61  54  77 S16       29.88R
FAIRMONT       CLOUDY    63  57  82 S16       29.86S
GLENCOE        RAIN      66  60  79 W3        29.84S
FARIBAULT      CLOUDY    64  57  77 SE7       29.86R
OWATONNA       CLOUDY    66  55  68 S12       29.85R
WASECA         CLOUDY    64  52  63 S15       29.86S
ALBERT LEA     CLOUDY    64  57  77 S12       29.87F
$$
MNZ078>079-086>088-094>096-311000-
   Southeast Minnesota

CITY           SKY/WX    TMP DP  RH WIND       PRES   REMARKS
ROCHESTER      CLOUDY    62  57  83 S12       29.90R
RED WING       CLOUDY    70  55  60 SE9       29.86R
STANTON        CLOUDY    67  58  72 SE9       29.84R
DODGE CENTER   CLOUDY    64  57  77 S8        29.89R
WINONA         CLOUDY    66  59  77 SE8       29.89S
AUSTIN         CLOUDY    63  57  82 S10       29.90R
PRESTON        CLOUDY    62  55  76 SE6       29.92S
$$
ABBREVIATIONS USED IN REMARKS
   TC - TEMPERATURES IN CELSIUS
  WCI - WIND CHILL INDEX
   HX - HEAT INDEX
  VSB - VISIBILITY
$$




USA.gov is the U.S. government's official web portal to all federal, state and local government web resources and services.